Location: Ciula Mare
(45.6000°N, 22.8167°E)
Time: 05:00:08
(UTC+00:00)

Cosmos 2322 - Pass Details

Date: 03 February 2023
Orbit: 841 x 853 km, 71.0° (Epoch: 28 March)

Event Time Altitude Azimuth Distance (km) Brightness Sun altitude
Rises 17:10:03 0° 173° (S) 3,405 6.9 -16.4°
Reaches altitude 10° 17:12:45 10° 163° (SSE) 2,475 6.0 -16.9°
Maximum altitude 17:17:38 30° 104° (ESE) 1,474 4.4 -17.7°
Enters shadow 17:18:14 30° 92° (E) 1,495 4.4 -17.8°
